#timestamp,LO_Frequency,Hit,StdDev 
1570226415.6,286046996.7,N
1570226435.4,286046996.8,N
1570226455.3,286046994.9,N
1570226475.1,286046999.6,N
1570226495.8,286046998.2,N
1570226515.7,286047000.0,N
1570226535.5,286046996.5,N
1570226555.4,286046997.3,N
1570226575.2,286046998.5,N
1570226595.0,286046998.1,N
1570226595.9,286046998.1,N
1570226615.8,286046997.8,N
1570226635.6,286046998.3,N
1570226655.5,286046997.1,N
1570226675.3,286046998.3,N
1570226695.1,286046997.2,N
1570226715.9,286047002.6,N
1570226735.7,286046998.8,N
1570226755.5,286046996.8,N
1570226775.4,286046996.3,N
1570226795.2,286046995.2,N
1570226815.1,286046993.7,Y
1570226816.0,286046993.7,P
1570226835.8,286046997.9,N
1570226855.6,286046998.8,N
1570226875.5,286047000.5,N
1570226895.3,286047001.0,N
1570226915.1,286047001.0,N
1570226935.9,286046999.5,N
1570226955.7,286046999.2,N
1570226975.6,286046998.2,N
1570226995.4,286047000.7,N
1570227015.2,286046999.3,N
1570227035.1,286047000.8,N
1570227036.0,286047000.8,N
1570227055.8,286047002.1,N
1570227075.6,286047004.1,N
1570227095.5,286047005.2,N
1570227115.3,286047002.6,N
1570227135.2,286046996.8,N
1570227155.9,286046998.0,N
1570227175.7,286046996.4,N
1570227195.6,286046996.0,N
1570227215.4,286047011.9,Y
1570227235.3,286046997.4,P
1570227255.1,286046999.3,N
1570227256.0,286046999.3,N
1570227275.8,286047001.2,N
1570227295.7,286046999.0,N
1570227315.5,286046999.5,N
1570227335.3,286046998.5,N
1570227355.2,286046998.2,N
1570227375.0,286046998.1,N
1570227375.9,286046998.1,N
1570227395.8,286047000.2,N
1570227415.6,286046998.1,N
1570227435.4,286046999.9,N
1570227455.3,286046998.4,N
1570227475.1,286047001.2,N
1570227495.8,286047001.9,N
1570227515.7,286047006.0,Y
1570227535.5,286047007.6,P
1570227555.4,286047007.5,N
1570227575.2,286047004.8,N
1570227595.0,286047005.9,N
1570227595.9,286047005.9,N
1570227615.8,286047005.8,N
1570227635.6,286047004.4,N
1570227655.5,286046999.8,N
1570227675.3,286047001.1,N
1570227695.1,286047002.1,N
1570227715.9,286047001.3,N
1570227735.7,286047006.9,N
1570227755.6,286047005.4,N
1570227775.4,286047005.1,N
1570227795.2,286047004.6,N
1570227815.1,286047005.2,N
1570227816.0,286047005.2,N
1570227835.8,286047005.4,N
1570227855.6,286047001.4,N
1570227875.5,286047004.8,N
1570227895.3,286047004.6,N
1570227915.2,286047002.6,N
1570227935.9,286047001.7,N
1570227955.7,286047003.4,N
1570227975.6,286047005.1,N
1570227995.4,286047007.4,Y
1570228015.2,286047004.1,P
1570228035.1,286047003.3,P
1570228036.0,286047003.3,P
1570228055.8,286047003.1,Y
1570228075.7,286046998.8,P
1570228095.5,286047001.5,N
1570228115.3,286047005.9,N
1570228135.2,286047002.4,N
1570228155.0,286047002.5,N
1570228155.9,286047002.5,N
1570228175.8,286047001.9,N
1570228195.6,286047002.9,N
1570228215.4,286047003.2,N
1570228235.3,286047003.9,N
1570228255.1,286047005.7,Y
1570228275.8,286047003.4,P
1570228295.7,286047005.8,P
1570228315.5,286047002.4,N
1570228335.4,286047002.3,N
1570228355.2,286047005.1,Y
1570228375.0,286047002.3,P
1570228375.9,286047002.3,P
1570228395.8,286047000.8,N
1570228415.6,286046996.8,Y
1570228435.5,286046995.9,P
1570228455.3,286046995.8,N
1570228475.1,286046993.3,N
1570228495.9,286046993.8,N
1570228515.7,286046995.1,N
1570228535.5,286046996.0,N
1570228555.4,286046997.3,N
1570228575.2,286046999.5,N
1570228595.1,286046997.4,N
1570228596.0,286046997.4,N
1570228615.8,286046999.3,N
1570228635.6,286046998.9,N
1570228655.5,286046997.3,N
1570228675.3,286047001.1,N
1570228695.1,286046999.0,N
1570228715.9,286046999.1,N
1570228735.7,286046999.8,N
1570228755.6,286046999.8,N
1570228775.4,286047004.4,N
1570228795.2,286047004.4,N
1570228815.1,286047003.0,N
1570228816.0,286047003.0,N
1570228835.8,286047007.3,N
1570228855.6,286047007.4,N
1570228875.5,286047008.3,N
1570228895.3,286047006.7,N
1570228915.1,286047004.5,N
1570228935.9,286047009.2,N
1570228955.7,286047008.2,N
1570228975.6,286047010.8,N
1570228995.4,286047008.9,N
1570229015.2,286047008.6,N
1570229035.1,286047006.8,N
1570229036.0,286047006.8,N
1570229055.8,286047010.3,N
1570229075.6,286047009.8,N
1570229095.5,286047011.6,N
1570229115.3,286047011.5,N
1570229135.2,286047011.6,N
1570229155.9,286047012.5,N
1570229175.7,286047013.1,N
1570229195.6,286047011.3,N
1570229215.4,286047013.8,Y
1570229235.2,286047005.2,P
1570229255.1,286047005.4,P
1570229256.0,286047005.4,P
1570229275.8,286047004.6,Y
1570229295.7,286047000.6,P
1570229315.5,286046999.8,N
1570229335.3,286046999.9,N
1570229355.2,286046998.4,N
1570229375.0,286047002.3,N
1570229375.9,286047002.3,N
1570229395.8,286047003.5,N
1570229415.6,286047003.8,N
1570229435.4,286047004.3,N
1570229455.3,286047005.2,N
1570229475.1,286047005.0,N
1570229495.8,286047003.4,N
1570229515.7,286047005.5,N
1570229535.5,286047006.7,N
1570229555.4,286047007.7,Y
1570229575.2,286047005.0,P
1570229595.0,286047007.0,P
1570229595.9,286047007.0,P
1570229615.8,286047007.6,Y
1570229635.6,286047002.7,P
1570229655.4,286047004.1,N
1570229675.3,286047005.6,P
1570229695.1,286047002.0,N
1570229715.9,286047004.4,Y
1570229735.7,286046998.6,P
1570229755.5,286047001.7,N
1570229775.4,286047004.1,N
1570229795.2,286047002.3,N
1570229815.0,286047002.3,N
1570229815.9,286047002.3,N
1570229835.8,286047001.6,N
1570229855.6,286047002.3,N
1570229875.5,286047004.0,N
1570229895.3,286047001.9,N
1570229915.1,286046999.8,N
1570229935.9,286047003.9,N
1570229955.7,286047001.9,N
1570229975.5,286047002.8,N
1570229995.4,286047002.1,N
